Location: *
(48.7358°N, 0.3111°E)
Time: 07:02:07
(UTC+00:00)

SL-16 R/B - Pass Details

Date: 22 October 2019
Orbit: 840 x 850 km, 71.0° (Epoch: 17 November)

Event Time Altitude Azimuth Distance (km) Brightness Sun altitude
Exits shadow 03:23:12 - 160° (SSE) 2,987 5.1 -30.9°
Reaches altitude 10° 03:24:56 10° 150° (SSE) 2,457 4.7 -30.7°
Maximum altitude 03:29:09 22° 101° (E) 1,761 4.4 -30.0°
Drops below altitude 10° 03:33:24 10° 52° (NE) 2,475 5.5 -29.4°
Sets 03:36:21 0° 38° (NE) 3,418 6.2 -28.9°
